Flag for U.S.A. Weather past 2 weeks in Fremont, California, U.S.A.

Now
57 °F

Clear.


Feels Like: 57 °F
Forecast: 50 / 69 °F
Wind: No wind

Location: Moffett Field


UV Index: 5 (Moderate)

Visibility: 10 mi


Pressure: 30.10 "Hg

Humidity: 67%

Dew point: 46 °F

Location of FremontLocation

Historic Weather in Fremont

°F

Fremont temperature yesterday

Maximum temperature yesterday: 80 °F (at 3:56 PM)
Minimum temperature yesterday: 51 °F (at 5:56 AM)
Average temperature yesterday: 63 °F

Past Weeks' High & Low Weather Summary

 TemperatureHumidityPressure
High81 °F (Apr 8, 1:56 PM)87% (Apr 9, 3:56 AM)30.25 "Hg (Apr 9, 3:56 AM)
Low48 °F (Apr 6, 5:56 AM)20% (Apr 20, 3:56 PM)29.82 "Hg (Apr 17, 5:56 AM)
Average62 °F68%30.02 "Hg
* Reported Apr 6 12:56 AM — Apr 21 12:56 AM, Fremont, Weather by CustomWeather, © 2014

Note: Actual official high and low records may vary slightly from our data, if they occured in-between our weather recording intervals... More about our weather records

Advertising

Historic Weather Conditions — Data for Previous 24 hours

 ConditionsComfort  
Time TempWeatherWind HumidityBarometerVisibility
12:56 AM
Apr 21
56 °FClear.5 mph70%30.11 "Hg10 mi
11:56 PM
Apr 20
57 °FClear.5 mph67%30.10 "Hg10 mi
10:56 PM59 °FClear.5 mph67%30.11 "Hg10 mi
9:56 PM61 °FClear.6 mph62%30.11 "Hg10 mi
8:56 PM64 °FClear.9 mph52%30.09 "Hg10 mi
7:56 PM64 °FSunny.6 mph58%30.08 "Hg10 mi
6:56 PM67 °FSunny.14 mph53%30.06 "Hg10 mi
5:56 PM70 °FSunny.16 mph51%30.07 "Hg10 mi
4:56 PM77 °FSunny.10 mph35%30.07 "Hg10 mi
3:56 PM80 °FSunny.10 mph20%30.08 "Hg10 mi
2:56 PM78 °FSunny.7 mph39%30.10 "Hg10 mi
1:56 PM75 °FSunny.9 mph45%30.11 "Hg10 mi
12:56 PM73 °FSunny.12 mph51%30.13 "Hg10 mi
11:56 AM70 °FSunny.5 mph57%30.14 "Hg10 mi
10:56 AM66 °FSunny.3 mph65%30.16 "Hg10 mi
9:56 AM61 °FSunny.No wind75%30.16 "Hg10 mi
8:56 AM59 °FSunny.No wind78%30.15 "Hg10 mi
7:56 AM55 °FSunny.No wind83%30.15 "Hg10 mi
6:56 AM52 °FClear.No wind83%30.14 "Hg10 mi
5:56 AM51 °FClear.No wind86%30.13 "Hg10 mi
4:56 AM53 °FClear.No wind83%30.13 "Hg10 mi
3:56 AM52 °FClear.No wind83%30.14 "Hg10 mi
2:56 AM55 °FClear.No wind80%30.13 "Hg10 mi
Weather by CustomWeather, © 2014

See weather overview